Simultaneous Nadir Overpasses (SNOs) Predictions

Prediction of SNOs over PacNW region [( 10.00, 139.50) to ( 22.70, 165.60)] between AQUA and NPP Satellites:

Table of predicted SNOs over PacNW region for the next 30.0 days since TLE Epoch: 3/6/2021
Index Date (AQUA) Time (AQUA) AQUA Lat,Lon Date (NPP) Time (NPP) NPP Lat,Lon Distance(km) Time Diff (sec)
1 03/08/2021 15:59:19 22.62, 147.50 03/08/2021 16:01:20 23.24, 144.58 307.11 121
2 03/16/2021 15:09:51 22.60, 159.86 03/16/2021 15:10:34 23.17, 157.25 274.64 43
3 03/24/2021 15:59:14 22.61, 147.52 03/24/2021 16:01:15 23.24, 144.60 307.64 121
4 04/01/2021 15:09:43 22.58, 159.89 04/01/2021 15:10:28 23.18, 157.28 276.17 45
